Погода в Арбагаре

Россия / Забайкальский край     51°56′38″N   116°16′49″E
темп.,
°C
ветер,
м/с
пор.,
м/с
влажн.,
%
обл.,
%
осадки,
мм/ч
давл.,
гПа
погр.,
м
6 марта, сб
сб600:00−28ююз12870 0.0 104219
03:00−29юз11910 0.0 104019
06:00−27юз119236 0.0 103919
09:00−26ссв019145 0.0 103622
12:00−21юз018577 0.0 1032263
15:00−17зюз248389 0.0 1027475
18:00−16юз3689100 0.0 1026336
21:00−21ююз229663 0.0 102720
7 марта, вс
вс700:00−21юз229724 0.0 102720
03:00−22юз1210029 0.0 102720
06:00−22юз111000 0.0 102820
09:00−20юз11950 0.0 102920
12:00−13ююз12810 0.0 1026205
15:00−8ююз13800 0.0 1024282
18:00−9ююз11888 0.0 102221
21:00−14ююз11924 0.0 102421
8 марта, пн
пн800:00−15ююз229119 0.0 102320
03:00−16юз229431 0.0 102220
06:00−16юз229541 0.0 102022
09:00−12юз389371 0.0 1020257
12:00−7юз4687100 0.0 1017301
15:00−3юз6108771 0.0 1015397
18:00−1зсз6137353 0.4 1015598
21:00−6зсз6147856 0.5 1019538
9 марта, вт
вт900:00−12зсз477033 0.0 1023118
03:00−16з237317 0.0 102722
06:00−18зюз12730 0.0 103020
09:00−17юз12720 0.0 103221
12:00−11юз236918 0.0 1030255
15:00−7юз257056 0.0 1027343
18:00−8зюз227887 0.0 102539
21:00−14ююз127964 0.0 102520
10 марта, ср
ср1000:00−14юз1281100 0.0 102420
03:00−13юз2487100 0.0 102285
06:00−14юз239094 0.0 102423
09:00−13юз238961 0.0 102440
12:00−4з37780 0.0 1022604
15:000сз37650 0.0 10221405
18:00−3юз11730 0.0 102321
21:00−8юз22790 0.0 102721